Home > Weather > Saint John > Past weeks

Flag for Canada Weather for the Past 2 Weeks in Saint John, New Brunswick, Canada

Now
28 °F

Clear.


Feels Like: 18 °F
Forecast: 23 / 46 °F
Wind: 12 mph from Northwest

Location: Saint John

Current Time: Apr 29, 2016 at 1:20:03 AM

Latest Report: Apr 29, 2016 at 12:00 AM


Visibility: 15 mi

Pressure: 30.16 "Hg

Humidity: 47%

Dew Point: 10 °F

Location of Saint JohnLocation

Historic Weather in Saint John — Graph

°F

Saint John Temperature Yesterday

Maximum temperature yesterday: 41 °F (at 12:00 AM)
Minimum temperature yesterday: 27 °F (at 6:00 AM)
Average temperature yesterday: 35 °F

High & Low Weather Summary for the Past Weeks

 TemperatureHumidityPressure
High72 °F (Apr 22, 2:00 PM)100% (Apr 17, 8:00 AM)30.53 "Hg (Apr 17, 8:00 AM)
Low19 °F (Apr 25, 5:00 AM)17% (Apr 17, 8:00 PM)29.73 "Hg (Apr 23, 5:00 PM)
Average41 °F56%30.05 "Hg
* Reported Apr 13 11:00 PM — Apr 28 11:00 PM, Saint John, Weather by CustomWeather, © 2016

Note: Actual official high and low records may vary slightly from our data, if they occured in-between our weather recording intervals... More about our weather records

Advertising

Saint John Weather History for the Previous 24 Hours

Scroll right to see more
 ConditionsComfort  
Time TempWeatherWind HumidityBarometerVisibility
11:00 PM
Thu, Apr 28
30 °FClear.9 mph43%30.15 "Hg15 mi
10:00 PM32 °FPassing clouds.12 mph40%30.13 "Hg15 mi
9:00 PM34 °FPassing clouds.13 mph38%30.11 "Hg15 mi
8:00 PM37 °FScattered clouds.9 mph30%30.07 "Hg15 mi
7:00 PM39 °FPassing clouds.14 mph28%30.04 "Hg15 mi
6:00 PM39 °FPassing clouds.14 mph26%30.02 "Hg15 mi
5:00 PM41 °FScattered clouds.21 mph26%30.01 "Hg15 mi
4:00 PM41 °FScattered clouds.17 mph26%30.00 "Hg15 mi
3:00 PM41 °FPartly sunny.20 mph26%29.99 "Hg15 mi
2:00 PM41 °FOvercast.18 mph26%29.98 "Hg15 mi
1:00 PM37 °FScattered clouds.20 mph26%29.98 "Hg15 mi
12:00 PM37 °FScattered clouds.18 mph26%29.97 "Hg15 mi
11:00 AM36 °FPassing clouds.20 mph30%29.96 "Hg15 mi
10:00 AM34 °FPassing clouds.10 mph44%29.95 "Hg15 mi
9:00 AM32 °FPassing clouds.16 mph55%29.94 "Hg15 mi
8:00 AM30 °FPartly sunny.15 mph75%29.92 "Hg15 mi
7:00 AM28 °FPassing clouds.7 mph86%29.89 "Hg15 mi
6:00 AM27 °FPassing clouds.7 mph86%29.86 "Hg15 mi
5:00 AM28 °FPartly cloudy.8 mph86%29.85 "Hg15 mi
4:00 AM28 °FPassing clouds.3 mph86%29.84 "Hg15 mi
2:00 AM32 °FSnow flurries. Overcast.13 mph87%29.84 "Hg12 mi
1:00 AM37 °FOvercast.18 mph56%29.82 "Hg15 mi
Weather by CustomWeather, © 2016

See weather overviewHow to use our weather pages